Tracking 18987 objects as of 17-Feb-2018
HD Live streaming from Space Station
objects crossing your sky now

NOAA 16 DEB

Track NOAA 16 DEB now!
10-day predictions


NORAD ID: 41135
Int'l Code: 2000-055BS
Perigee: 768.5 km
Apogee: 855.9 km
Inclination: 98.8 °
Period: 101.0 minutes
Semi major axis: 7183 km
RCS: Unknown
Launch date: September 21, 2000
Source: United States (US)
Launch site: AIR FORCE WESTERN TEST RANGE (AFWTR)

Note: This is SATELLITE DEBRIS
aabbcc
Your satellite tracking list
Your tracking list is empty




NASA's NSSDC Master Catalog

Two Line Element Set (TLE):
1 41135U 00055BS  18047.45987512  .00000908  00000-0  39192-3 0  9999
2 41135  98.8324 135.9572 0060800 261.9204  97.5075 14.26018449115087
Source of the keplerian elements: AFSPC